Regional Weather Roundup
Issued by NWS Jackson, KY

Home | Current Version | Previous Version | Graphics & Text | Print | Product List | Glossary On
Versions: 1 2 3 4 5 6 7 8 9 10 11 12 13 14 15 16 17 18 19 20 21 22 23 24 25 26 27 28 29 30 31 32 33 34 35 36 37 38 39 40 41 42 43 44 45 46 47 48 49 50
000
ASUS43 KJKL 220810
RWRJKL

EAST KENTUCKY HOURLY WEATHER ROUNDUP
NATIONAL WEATHER SERVICE JACKSON KY
400 AM EDT TUE JUL 22 2014

NOTE: "FAIR" INDICATES FEW OR NO CLOUDS BELOW 12,000 FEET WITH
NO SIGNIFICANT WEATHER AND/OR OBSTRUCTIONS TO VISIBILITY.

* THESE REPORTS ARE NOT UNDER NWS QUALITY CONTROL AND MAY NOT
  REPORT WEATHER SUCH AS PRECIPITATION AND FOG.

KYZ079-080-083-085-087-088-110-112-115-119-120-220900
...EASTERN KENTUCKY...

CITY           SKY/WX    TMP DP  RH WIND       PRES   REMARKS
JACKSON        PTCLDY    72  67  84 E3        30.12S
LONDON         MOCLDY    71  68  90 CALM      30.11S
SOMERSET*      CLEAR     70  70 100 CALM      30.10S
MONTICELLO*    CLEAR     68  67  96 CALM      30.10F FOG
WILLIAMSBURG*    N/A     72  72 100 CALM      30.10F
MIDDLESBORO*   PTCLDY    69  67  94 CALM      30.12S
HARLAN APT*    CLOUDY    68  68 100 MISG      30.13S VSB<1/4
BLACK MTN*       N/A     63  63 100 S2          N/A
PIKEVILLE APT* CLEAR     72  66  83 SE3       30.13S
BIG SANDY*     SUNNY     72  68  89 CALM      30.11F
MOREHEAD APT*    N/A     72  70  94 CALM      30.12S
$$

KYZ035-036-041-042-044-050-067-078-099-220900
...CENTRAL KENTUCKY...

CITY           SKY/WX    TMP DP  RH WIND       PRES   REMARKS
MT STERLING*   CLEAR     70  68  94 CALM      30.11S
FLEMING/MASON* CLEAR     70  70 100 E3        30.10F FOG
DANVILLE*      MOCLDY    70  68  94 CALM      30.10S
RICHMOND*      CLEAR     70  68  94 CALM      30.09S
LEXINGTON      CLEAR     71  67  87 CALM      30.09F
FRANKFORT      CLEAR     68  66  93 CALM      30.08S
$$

KYZ091>093-OHZ055-061-077-WVZ005-015-034-035-042-220900
...SOUTHERN OHIO/WEST VIRGINIA...

CITY           SKY/WX    TMP DP  RH WIND       PRES   REMARKS
COVINGTON      CLEAR     71  65  81 E5        30.09F
COLUMBUS       CLEAR     70  66  87 CALM      30.10S
DAYTON         CLEAR     69  64  84 CALM      30.11F
WILMINGTON     CLEAR     66  64  93 CALM      30.11S FOG
HUNTINGTON     CLEAR     68  68 100 CALM      30.09S FOG
CHARLESTON     PTCLDY    69  69 100 CALM      30.11S
PINEVILLE*     CLEAR     66  66 100 MISG      30.21F FOG
BECKLEY        CLEAR     67  64  90 S3        30.21S
BLUEFIELD      PTCLDY    69  64  84 VRB5      30.22F
$$

VAZ002-007-008-TNZ017-027-036-066-071-220900
...SOUTHWEST VIRGINIA/EAST TENNESSEE...

CITY           SKY/WX    TMP DP  RH WIND       PRES   REMARKS
WISE*          PTCLDY    68  64  88 S5        30.21R
JONESVILLE*      N/A     66  66 100 CALM      30.15S
ABINGDON*      MOCLDY    69  66  89 E6        30.18S
BRISTOL        MOCLDY    69  64  84 CALM      30.14S
KNOXVILLE      MOCLDY    72  71  97 CALM      30.09S
OAK RIDGE      PTCLDY    73  71  93 CALM      30.11R
CROSSVILLE     CLEAR     67  65  93 CALM      30.14S
NASHVILLE      PTCLDY    74  71  91 CALM      30.07S
$$

...KEY TO REMARKS...
VSB - VISIBILITY IN MILES
WCI - WIND CHILL INDEX
HX  - HEAT INDEX

$$


USA.gov is the U.S. government's official web portal to all federal, state and local government web resources and services.